Regional Weather Roundup
Issued by NWS Upton, NY

Current Version | Previous Version | Text Only | Print | Product List | Glossary On
Versions: 1 2 3 4 5 6 7 8 9 10 11 12 13 14 15 16 17 18 19 20 21 22 23 24 25 26 27 28 29 30 31 32 33 34 35 36 37 38 39 40 41 42 43 44 45 46 47 48 49 50
000
ASUS41 KOKX 311105
RWROKX

REGIONAL WEATHER ROUNDUP
NATIONAL WEATHER SERVICE NEW YORK NY
600 AM EST SAT JAN 31 2015

NOTE: "FAIR" INDICATES FEW OR NO CLOUDS BELOW 12,000 FEET WITH NO
SIGNIFICANT WEATHER AND/OR OBSTRUCTIONS TO VISIBILITY.

NYZ071-072-176-178-NJZ106-104-311200-
NEW YORK CITY METRO AREA


CITY           SKY/WX    TMP DP  RH WIND       PRES   REMARKS
CENTRAL PARK   CLEAR     14  -4  44 NW15G26   30.12R WCI  -1
LAGUARDIA APRT CLEAR     15   1  53 NW26G37   30.09R WCI  -4
KENNEDY INTL   PTCLDY    15  -3  44 NW25G33   30.09R WCI  -4
NEWARK/LIBERTY CLEAR     14  -2  49 NW18G28   30.11R WCI  -3
BRNX BOT. GARD   N/A    N/A N/A N/A N7        30.09S
TETERBORO      CLEAR     13  -5  44 NW17G29   30.10R WCI  -4
$$

NYZ177-179-078>081-311200-
LONG ISLAND NEW YORK

CITY           SKY/WX    TMP DP  RH WIND       PRES   REMARKS
FARMINGDALE    CLEAR     13  -5  44 NW14G35   30.03R WCI  -2
ISLIP          CLEAR     14  -5  42 NW18G35   29.97S WCI  -3
SHIRLEY        CLEAR     13  -5  44 NW26G38   29.99R WCI  -7
WESTHAMPTON    CLEAR     13  -3  49 NW25G36   29.97R WCI  -7
MONTAUK POINT    N/A     14   4  64 NW23G36   29.91R WCI  -5
$$

NYZ052-065-067-311200-
HUDSON VALLEY

CITY           SKY/WX    TMP DP  RH WIND       PRES   REMARKS
WHITE PLAINS   CLEAR     10  -7  46 NW22G30   30.01R WCI -10
NEWBURGH       CLEAR      7  -6  56 NW12G24   30.09  WCI  -9
MONTGOMERY     CLEAR      8  -9  45 NW8       30.10R WCI  -4
POUGHKEEPSIE   CLEAR     11 -10  38 NW14      30.10R WCI  -5
ALBANY         PTCLDY     1 -11  57 NW16      30.15R WCI -19
$$

NJZ001-105-106-008-010-013-015-019>022-104-311200-
NEW JERSEY

CITY           SKY/WX    TMP DP  RH WIND       PRES   REMARKS
NEWARK/LIBERTY CLEAR     14  -2  49 NW18G28   30.11R WCI  -3
TETERBORO      CLEAR     13  -5  44 NW17G29   30.10R WCI  -4
CALDWELL       CLEAR     12  -5  46 MISG      30.12R
MORRISTOWN     CLEAR     16   0  48 NW10G20   30.11S WCI   3
SOMERVILLE     CLEAR     14  -3  47 NW12G25   30.12R WCI   0
SUSSEX         CLEAR     11  -5  48 VRB7G18   30.10S WCI   0
ANDOVER          N/A     10  -2  58 N10G20    30.09S WCI  -4
TRENTON        CLEAR     13  -4  46 NW12G22   30.14S WCI  -1
MILLVILLE      CLEAR     15  -2  46 NW17G25   30.19S WCI  -1
ATLANTIC CITY  CLEAR     14   0  53 NW17G24   30.15R WCI  -3
WRIGHTSTOWN    CLEAR     13  -2  51 NW15G23   30.12S WCI  -3
TOMS RIVER     CLEAR     12   0  57 NW17G24   30.12S WCI  -5
BELMAR         CLEAR     12  -4  48 NW13G21   30.09S WCI  -3
$$

PAZ047>061-062-071-311200-
EASTERN PENNSYLVANIA

CITY           SKY/WX    TMP DP  RH WIND       PRES   REMARKS
PHILADELPHIA   CLEAR     15  -3  44 NW20G26   30.21S WCI  -2
ALLENTOWN      CLEAR     11  -4  51 NW16G23   30.17S WCI  -6
SCRANTON       CLOUDY     7  -4  60 NW8G20    30.18S WCI  -6
$$

CTZ002-004>006-009-010-012-RIZ004-006-007-MAZ004-011-015-311200-
SOUTHERN NEW ENGLAND
 IN CT

CITY           SKY/WX    TMP DP  RH WIND       PRES   REMARKS
BRADLEY INTL   CLEAR      6  -8  52 NW12G20   29.98R WCI  -9
HARTFORD       CLEAR      7  -7  52 N16G25    30.01R WCI -11
DANBURY        CLEAR      7 -10  46 NW17G28   30.02S WCI -12
WTRBRY/OXFORD  CLEAR      5 -15  39 NW17G35   29.93S WCI -14
BRIDGEPORT     CLEAR     11  -7  44 NW21G38   29.99R WCI  -8
MERIDEN        CLEAR      8  -8  48 N12G23    30.00R WCI  -7
NEW HAVEN      CLEAR     10  -7  46 NW17G28   29.98R WCI  -8
CHESTER        FAIR       9  -6  52 NW18G30   29.91R WCI -10
GROTON         CLOUDY     9  -3  58 NW25G38   29.87R WCI -12
WILLIMANTIC    MOCLDY     8  -5  55 NW14G22   29.92R WCI  -8

 IN RI

CITY           SKY/WX    TMP DP  RH WIND       PRES   REMARKS
PROVIDENCE     FLURRIES  14   1  56 NW22G33   29.81R WCI  -4
BLOCK ISLAND   CLOUDY    14   1  57 NW18G32   29.81R WCI  -3
WESTERLY       CLOUDY    11  -3  53 NW22G38   29.84R WCI  -8

 IN MA

CITY           SKY/WX    TMP DP  RH WIND       PRES   REMARKS
BOSTON         LGT SNOW  12   6  77 NW22G37   29.78R VSB 3/4 WCI  -7
WORCESTER      MIX PCPN N/A N/A N/A NW33G46   29.76S
WESTFIELD      CLEAR      5  -8  55 NW22G32   29.98R WCI -16
PROVINCETOWN   CLOUDY    19  14  79 NW32G44   29.69R VSB 1/2 WCI   0
NANTUCKET      LGT SNOW  19  12  74 NW26G33   29.69R VSB 1   WCI   1
$$

ANZ330-335-338-340-345-350-353-355-311200-
COASTAL MARINE OBSERVATIONS


STATION/POSITION TIME  SKY/WX   TEMP    WIND        PRES    VSBY  WAVE
                                AIR SEA DIR/SP/G                  HT/PER
                 (UTC)          (F)     (DEG/KT/KT) (MB)    (MI)  (FT/S)
NY HARB ENTRANCE 1100            20 40  310/ 33/ 43 1017.0          6/ 6
4S FIRE IS       1100               38                N/A           6/ 6
20S FIRE ISLAND  1000               41              1015.5          9/ 7
23SW MTP         1100                                 N/A          10/ 7
HUDSON CANYON    NOT AVBL
EXECUTION ROCKS  1100            16 33  290/ 21/ 31   N/A
WESTERN LI SOUND 1100            16     300/ 21/ 29   N/A           2/ 3
CENTRAL LI SOUND 1000            14 34  330/ 25/ 35   N/A           5/ 5
EASTERN LI SOUND NOT AVBL
ROBBINS REEF     1100            15     330/ 22/ 30 1018.2
$$


>>>>>>>>>>>>>>>>>>>>>>>>>>>> KEY <<<<<<<<<<<<<<<<<<<<<<<<<<<
>                                                          <
>     SKY/WX - SKY CONDITION/PRESENT WEATHER               <
>     TMP    - TEMPERATURE IN FAHRENHEIT                   <
>     DP     - DEWPOINT IN FAHRENHEIT                      <
>     RH     - RELATIVE HUMIDITY IN PERCENT                <
>     WIND   - DIRECTION AND SPEED IN MPH                  <
>     PRES   - MEAN SEA LEVEL PRESSURE IN INCHES OF HG     <
>     WCI    - WIND CHILL INDEX                            <
>     VSB    - VISIBILITY IN MILES                         <
>     HX     - HEAT INDEX                                  <
>     TC     - TEMPERATURE IN CELSIUS                      <
>     VRB    - VARIABLE WIND DIRECTION                     <
>                                                          <
>>>>>>>>>>>>>>>>>>>>>>>>>>>> KEY <<<<<<<<<<<<<<<<<<<<<<<<<<<





USA.gov is the U.S. government's official web portal to all federal, state and local government web resources and services.